Time,TemperatureF,DewpointF,PressureIn,WindDirection,WindDirectionDegrees,WindSpeedMPH,WindSpeedGustMPH,Humidity,HourlyPrecipIn,Conditions,Clouds,dailyrainin,SoftwareType,DateUTC
2013-01-23 00:00:00,57.4,56.3,30.23,ENE,77,0.0,0.0,96,0.00,,,0.00,Wunderground v.1.15,2013-01-23 06:00:00,
2013-01-23 00:09:00,57.6,56.2,30.23,ENE,77,0.0,0.0,95,0.00,,,0.00,Wunderground v.1.15,2013-01-23 06:09:00,
2013-01-23 00:14:00,57.6,56.2,30.23,ENE,77,0.0,0.0,95,0.00,,,0.00,Wunderground v.1.15,2013-01-23 06:14:00,
2013-01-23 00:19:00,57.5,56.1,30.23,ENE,77,0.0,0.0,95,0.00,,,0.00,Wunderground v.1.15,2013-01-23 06:19:00,
2013-01-23 00:25:00,57.4,56.0,30.23,ENE,77,0.0,0.0,95,0.00,,,0.00,Wunderground v.1.15,2013-01-23 06:25:00,
2013-01-23 00:30:00,57.5,56.4,30.23,ENE,77,0.0,0.0,96,0.00,,,0.00,Wunderground v.1.15,2013-01-23 06:30:00,
2013-01-23 00:35:00,57.6,56.2,30.23,ENE,77,0.0,0.0,95,0.00,,,0.00,Wunderground v.1.15,2013-01-23 06:35:00,
2013-01-23 00:40:00,57.4,56.0,30.23,ENE,77,0.0,0.0,95,0.00,,,0.00,Wunderground v.1.15,2013-01-23 06:40:00,
2013-01-23 00:45:00,57.4,56.3,30.23,ENE,77,0.0,0.0,96,0.00,,,0.00,Wunderground v.1.15,2013-01-23 06:45:00,
2013-01-23 00:50:00,57.5,56.4,30.23,ENE,77,0.0,0.0,96,0.00,,,0.00,Wunderground v.1.15,2013-01-23 06:50:00,
2013-01-23 01:00:00,57.4,56.0,30.23,ENE,77,0.0,0.0,95,0.00,,,0.00,Wunderground v.1.15,2013-01-23 07:00:00,
2013-01-23 01:09:00,57.0,55.6,30.23,ENE,77,0.0,0.0,95,0.00,,,0.00,Wunderground v.1.15,2013-01-23 07:09:00,
2013-01-23 01:14:00,57.0,55.6,30.23,ENE,77,0.0,0.0,95,0.00,,,0.00,Wunderground v.1.15,2013-01-23 07:14:00,
2013-01-23 01:19:00,57.1,56.0,30.23,ENE,69,0.0,0.0,96,0.00,,,0.00,Wunderground v.1.15,2013-01-23 07:19:00,
2013-01-23 01:24:00,57.2,56.1,30.23,ENE,60,0.0,0.0,96,0.00,,,0.00,Wunderground v.1.15,2013-01-23 07:24:00,
2013-01-23 01:30:00,57.2,56.1,30.23,ENE,60,0.0,0.0,96,0.00,,,0.00,Wunderground v.1.15,2013-01-23 07:30:00,
2013-01-23 01:35:00,57.3,56.2,30.23,ENE,60,0.0,0.0,96,0.00,,,0.00,Wunderground v.1.15,2013-01-23 07:35:00,
2013-01-23 01:40:00,57.3,56.2,30.23,ENE,60,0.0,0.0,96,0.00,,,0.00,Wunderground v.1.15,2013-01-23 07:40:00,
2013-01-23 01:45:00,57.3,56.2,30.23,ENE,61,0.0,0.0,96,0.00,,,0.00,Wunderground v.1.15,2013-01-23 07:45:00,
2013-01-23 01:50:00,57.2,55.8,30.23,ENE,61,0.0,0.0,95,0.00,,,0.00,Wunderground v.1.15,2013-01-23 07:50:00,
2013-01-23 01:55:00,57.2,56.1,30.23,ENE,60,0.0,0.0,96,0.00,,,0.00,Wunderground v.1.15,2013-01-23 07:55:00,
2013-01-23 02:00:00,57.2,56.1,30.23,ENE,60,0.0,0.0,96,0.00,,,0.00,Wunderground v.1.15,2013-01-23 08:00:00,
2013-01-23 02:09:00,57.3,56.2,30.22,ENE,61,0.0,0.0,96,0.00,,,0.00,Wunderground v.1.15,2013-01-23 08:09:00,
2013-01-23 02:14:00,57.4,56.3,30.22,ENE,60,0.0,0.0,96,0.00,,,0.00,Wunderground v.1.15,2013-01-23 08:14:00,
2013-01-23 02:19:00,57.4,56.3,30.22,ENE,61,0.0,0.0,96,0.00,,,0.00,Wunderground v.1.15,2013-01-23 08:19:00,
2013-01-23 02:24:00,57.4,56.3,30.22,ENE,61,0.0,0.0,96,0.00,,,0.00,Wunderground v.1.15,2013-01-23 08:24:00,
2013-01-23 02:29:00,57.5,56.4,30.22,ENE,60,0.0,0.0,96,0.00,,,0.00,Wunderground v.1.15,2013-01-23 08:29:00,
2013-01-23 02:35:00,57.4,56.3,30.22,ENE,60,0.0,0.0,96,0.00,,,0.00,Wunderground v.1.15,2013-01-23 08:35:00,
2013-01-23 02:40:00,57.4,56.3,30.22,NE,56,0.0,0.0,96,0.00,,,0.00,Wunderground v.1.15,2013-01-23 08:40:00,
2013-01-23 02:45:00,57.3,55.9,30.22,NE,55,0.0,0.0,95,0.00,,,0.00,Wunderground v.1.15,2013-01-23 08:45:00,
2013-01-23 02:50:00,57.4,56.3,30.22,NE,56,0.0,0.0,96,0.00,,,0.00,Wunderground v.1.15,2013-01-23 08:50:00,
2013-01-23 02:55:00,57.3,55.9,30.22,NE,43,0.0,0.0,95,0.00,,,0.00,Wunderground v.1.15,2013-01-23 08:55:00,
2013-01-23 03:00:00,57.1,55.7,30.22,NE,43,0.0,0.0,95,0.00,,,0.00,Wunderground v.1.15,2013-01-23 09:00:00,
2013-01-23 03:09:00,57.0,55.9,30.22,NE,43,0.0,0.0,96,0.00,,,0.00,Wunderground v.1.15,2013-01-23 09:09:00,
2013-01-23 03:14:00,57.1,56.0,30.22,NE,42,0.0,0.0,96,0.00,,,0.00,Wunderground v.1.15,2013-01-23 09:14:00,
2013-01-23 03:19:00,57.2,56.1,30.22,NE,42,0.0,0.0,96,0.00,,,0.00,Wunderground v.1.15,2013-01-23 09:19:00,
2013-01-23 03:24:00,57.1,56.0,30.22,NE,43,0.0,0.0,96,0.00,,,0.00,Wunderground v.1.15,2013-01-23 09:24:00,
2013-01-23 03:29:00,57.0,55.9,30.22,NE,42,0.0,0.0,96,0.00,,,0.00,Wunderground v.1.15,2013-01-23 09:29:00,
2013-01-23 03:34:00,56.9,55.8,30.22,NE,42,0.0,0.0,96,0.00,,,0.00,Wunderground v.1.15,2013-01-23 09:34:00,
2013-01-23 03:44:00,57.0,55.9,30.22,NE,43,0.0,0.0,96,0.00,,,0.00,Wunderground v.1.15,2013-01-23 09:44:00,
2013-01-23 03:49:00,57.0,55.9,30.22,NE,42,0.0,0.0,96,0.00,,,0.00,Wunderground v.1.15,2013-01-23 09:49:00,
2013-01-23 03:54:00,57.1,56.0,30.22,NE,43,0.0,0.0,96,0.00,,,0.00,Wunderground v.1.15,2013-01-23 09:54:00,
2013-01-23 04:00:00,57.1,56.0,30.22,NE,43,0.0,0.0,96,0.00,,,0.00,Wunderground v.1.15,2013-01-23 10:00:00,
2013-01-23 04:09:00,57.0,55.9,30.22,NE,46,0.0,1.0,96,0.00,,,0.00,Wunderground v.1.15,2013-01-23 10:09:00,
2013-01-23 04:14:00,57.1,56.0,30.22,NE,46,0.0,1.0,96,0.00,,,0.00,Wunderground v.1.15,2013-01-23 10:14:00,
2013-01-23 04:19:00,57.0,55.6,30.22,NE,46,0.0,0.0,95,0.00,,,0.00,Wunderground v.1.15,2013-01-23 10:19:00,
2013-01-23 04:25:00,57.0,55.9,30.22,NE,46,0.0,0.0,96,0.00,,,0.00,Wunderground v.1.15,2013-01-23 10:25:00,
2013-01-23 04:30:00,57.0,55.9,30.22,NE,46,0.0,0.0,96,0.00,,,0.00,Wunderground v.1.15,2013-01-23 10:30:00,
2013-01-23 04:35:00,57.0,55.9,30.22,NE,46,0.0,0.0,96,0.00,,,0.00,Wunderground v.1.15,2013-01-23 10:35:00,
2013-01-23 04:40:00,56.9,55.5,30.22,NE,46,0.0,0.0,95,0.00,,,0.00,Wunderground v.1.15,2013-01-23 10:40:00,
2013-01-23 04:49:00,57.3,56.2,30.22,NE,46,0.0,1.0,96,0.00,,,0.00,Wunderground v.1.15,2013-01-23 10:49:00,
2013-01-23 04:54:00,57.4,56.3,30.22,NE,46,0.0,1.0,96,0.00,,,0.00,Wunderground v.1.15,2013-01-23 10:54:00,
2013-01-23 05:00:00,57.4,56.3,30.22,NE,47,0.0,0.0,96,0.00,,,0.00,Wunderground v.1.15,2013-01-23 11:00:00,
2013-01-23 05:10:00,57.5,56.4,30.22,NE,47,0.0,0.0,96,0.00,,,0.00,Wunderground v.1.15,2013-01-23 11:10:00,
2013-01-23 05:20:00,57.5,56.4,30.22,NE,46,0.0,0.0,96,0.00,,,0.00,Wunderground v.1.15,2013-01-23 11:20:00,
2013-01-23 05:25:00,57.6,56.5,30.22,NE,46,0.0,0.0,96,0.00,,,0.00,Wunderground v.1.15,2013-01-23 11:25:00,
2013-01-23 05:30:00,57.6,56.5,30.22,NE,47,0.0,0.0,96,0.00,,,0.00,Wunderground v.1.15,2013-01-23 11:30:00,
2013-01-23 05:35:00,57.6,56.5,30.22,NE,46,0.0,0.0,96,0.00,,,0.00,Wunderground v.1.15,2013-01-23 11:35:00,
2013-01-23 05:40:00,57.6,56.5,30.22,NE,47,0.0,0.0,96,0.00,,,0.00,Wunderground v.1.15,2013-01-23 11:40:00,
2013-01-23 05:50:00,57.6,56.5,30.22,NE,47,0.0,0.0,96,0.00,,,0.00,Wunderground v.1.15,2013-01-23 11:50:00,
2013-01-23 05:55:00,57.6,56.5,30.22,NE,47,0.0,0.0,96,0.00,,,0.00,Wunderground v.1.15,2013-01-23 11:55:00,
2013-01-23 06:00:00,57.7,56.6,30.23,NE,46,0.0,0.0,96,0.00,,,0.00,Wunderground v.1.15,2013-01-23 12:00:00,
2013-01-23 06:09:00,57.7,56.6,30.23,NE,47,0.0,0.0,96,0.00,,,0.00,Wunderground v.1.15,2013-01-23 12:09:00,
2013-01-23 06:55:00,57.4,56.3,30.23,NE,46,0.0,0.0,96,0.00,,,0.00,Wunderground v.1.15,2013-01-23 12:55:00,
2013-01-23 07:00:00,57.4,56.3,30.24,NE,47,0.0,0.0,96,0.00,,,0.00,Wunderground v.1.15,2013-01-23 13:00:00,
2013-01-23 07:09:00,57.5,56.4,30.24,NE,46,0.0,0.0,96,0.00,,,0.00,Wunderground v.1.15,2013-01-23 13:09:00,
2013-01-23 07:14:00,57.6,56.5,30.24,NE,47,0.0,0.0,96,0.00,,,0.00,Wunderground v.1.15,2013-01-23 13:14:00,
2013-01-23 07:19:00,57.8,56.7,30.24,NE,46,0.0,0.0,96,0.00,,,0.00,Wunderground v.1.15,2013-01-23 13:19:00,
2013-01-23 07:24:00,57.9,56.8,30.24,NE,47,0.0,0.0,96,0.00,,,0.00,Wunderground v.1.15,2013-01-23 13:24:00,
2013-01-23 07:29:00,57.9,56.8,30.24,NE,46,0.0,0.0,96,0.00,,,0.00,Wunderground v.1.15,2013-01-23 13:29:00,
2013-01-23 07:34:00,57.7,56.6,30.24,NE,47,0.0,0.0,96,0.00,,,0.00,Wunderground v.1.15,2013-01-23 13:34:00,
2013-01-23 07:39:00,57.4,56.0,30.25,NE,46,0.0,0.0,95,0.00,,,0.00,Wunderground v.1.15,2013-01-23 13:39:00,
2013-01-23 07:44:00,57.1,55.7,30.25,NE,47,0.0,0.0,95,0.00,,,0.00,Wunderground v.1.15,2013-01-23 13:44:00,
2013-01-23 07:49:00,56.9,55.8,30.25,NE,47,0.0,0.0,96,0.00,,,0.00,Wunderground v.1.15,2013-01-23 13:49:00,
2013-01-23 07:55:00,57.0,55.9,30.25,NE,47,0.0,0.0,96,0.00,,,0.00,Wunderground v.1.15,2013-01-23 13:55:00,
2013-01-23 08:00:00,57.3,56.2,30.25,NE,46,0.0,0.0,96,0.00,,,0.00,Wunderground v.1.15,2013-01-23 14:00:00,
2013-01-23 08:10:00,57.9,56.8,30.26,NE,46,0.0,0.0,96,0.00,,,0.00,Wunderground v.1.15,2013-01-23 14:10:00,
2013-01-23 08:15:00,58.4,57.6,30.26,NE,47,0.0,0.0,97,0.00,,,0.00,Wunderground v.1.15,2013-01-23 14:15:00,
2013-01-23 08:20:00,58.8,58.0,30.26,NE,46,0.0,0.0,97,0.00,,,0.00,Wunderground v.1.15,2013-01-23 14:20:00,
2013-01-23 08:25:00,59.5,58.6,30.26,NE,47,0.0,0.0,97,0.00,,,0.00,Wunderground v.1.15,2013-01-23 14:25:00,
2013-01-23 08:30:00,60.1,59.2,30.26,NE,46,0.0,0.0,97,0.00,,,0.01,Wunderground v.1.15,2013-01-23 14:30:00,
2013-01-23 08:35:00,61.0,60.1,30.26,NE,47,0.0,0.0,97,0.00,,,0.01,Wunderground v.1.15,2013-01-23 14:35:00,
2013-01-23 08:45:00,61.6,60.4,30.27,NE,47,0.0,0.0,96,0.00,,,0.01,Wunderground v.1.15,2013-01-23 14:45:00,
2013-01-23 08:50:00,61.7,60.3,30.27,NE,47,0.0,0.0,95,0.00,,,0.01,Wunderground v.1.15,2013-01-23 14:50:00,
2013-01-23 08:55:00,61.7,60.3,30.27,NE,46,0.0,0.0,95,0.00,,,0.01,Wunderground v.1.15,2013-01-23 14:55:00,
2013-01-23 09:00:00,62.2,60.8,30.27,ENE,61,0.0,0.0,95,0.00,,,0.01,Wunderground v.1.15,2013-01-23 15:00:00,
2013-01-23 09:10:00,62.9,61.1,30.28,ENE,68,0.0,0.0,94,0.00,,,0.01,Wunderground v.1.15,2013-01-23 15:10:00,
2013-01-23 09:15:00,63.3,61.2,30.28,ENE,65,0.0,1.0,93,0.00,,,0.01,Wunderground v.1.15,2013-01-23 15:15:00,
2013-01-23 09:20:00,63.2,60.5,30.28,NE,47,1.0,1.0,91,0.00,,,0.01,Wunderground v.1.15,2013-01-23 15:20:00,
2013-01-23 09:25:00,63.0,60.3,30.28,NE,43,1.0,1.0,91,0.00,,,0.01,Wunderground v.1.15,2013-01-23 15:25:00,
2013-01-23 09:30:00,63.4,60.7,30.29,ENE,70,1.0,1.0,91,0.00,,,0.01,Wunderground v.1.15,2013-01-23 15:30:00,
2013-01-23 09:35:00,63.6,60.6,30.29,ENE,65,1.0,1.0,90,0.00,,,0.01,Wunderground v.1.15,2013-01-23 15:35:00,
2013-01-23 09:40:00,63.6,60.3,30.29,NNE,20,1.0,2.0,89,0.00,,,0.01,Wunderground v.1.15,2013-01-23 15:40:00,
2013-01-23 09:50:00,63.0,59.1,30.30,NE,43,2.0,3.0,87,0.00,,,0.01,Wunderground v.1.15,2013-01-23 15:50:00,
2013-01-23 09:55:00,62.8,59.5,30.30,NE,49,2.0,3.0,89,0.00,,,0.01,Wunderground v.1.15,2013-01-23 15:55:00,
2013-01-23 10:00:00,62.6,59.0,30.30,NNE,30,2.0,2.0,88,0.00,,,0.01,Wunderground v.1.15,2013-01-23 16:00:00,
2013-01-23 10:10:00,62.6,59.3,30.31,NE,51,2.0,4.0,89,0.00,,,0.01,Wunderground v.1.15,2013-01-23 16:10:00,
2013-01-23 10:20:00,63.0,59.7,30.31,ENE,70,2.0,2.0,89,0.00,,,0.01,Wunderground v.1.15,2013-01-23 16:20:00,
2013-01-23 10:25:00,63.3,60.0,30.31,ENE,68,2.0,3.0,89,0.00,,,0.01,Wunderground v.1.15,2013-01-23 16:25:00,
2013-01-23 10:30:00,63.2,59.9,30.31,ENE,64,2.0,4.0,89,0.00,,,0.01,Wunderground v.1.15,2013-01-23 16:30:00,
2013-01-23 10:35:00,63.4,60.4,30.30,NE,53,2.0,4.0,90,0.00,,,0.01,Wunderground v.1.15,2013-01-23 16:35:00,
2013-01-23 10:40:00,63.9,60.9,30.30,ENE,72,1.0,2.0,90,0.00,,,0.01,Wunderground v.1.15,2013-01-23 16:40:00,
2013-01-23 10:45:00,64.5,61.5,30.30,ENE,78,2.0,2.0,90,0.00,,,0.01,Wunderground v.1.15,2013-01-23 16:45:00,
2013-01-23 10:55:00,65.3,62.0,30.30,East,91,3.0,3.0,89,0.00,,,0.01,Wunderground v.1.15,2013-01-23 16:55:00,
2013-01-23 11:00:00,65.8,62.5,30.30,ESE,113,3.0,4.0,89,0.00,,,0.01,Wunderground v.1.15,2013-01-23 17:00:00,
2013-01-23 11:10:00,66.6,62.9,30.30,ENE,64,2.0,4.0,88,0.00,,,0.01,Wunderground v.1.15,2013-01-23 17:10:00,
2013-01-23 11:15:00,66.5,62.5,30.30,East,82,2.0,4.0,87,0.00,,,0.01,Wunderground v.1.15,2013-01-23 17:15:00,
2013-01-23 11:25:00,67.3,63.0,30.30,East,100,2.0,3.0,86,0.00,,,0.01,Wunderground v.1.15,2013-01-23 17:25:00,
2013-01-23 11:30:00,67.7,63.0,30.30,ENE,68,3.0,3.0,85,0.00,,,0.01,Wunderground v.1.15,2013-01-23 17:30:00,
2013-01-23 11:35:00,67.5,62.8,30.29,East,98,3.0,4.0,85,0.00,,,0.01,Wunderground v.1.15,2013-01-23 17:35:00,
2013-01-23 11:40:00,67.2,62.9,30.29,ENE,73,3.0,3.0,86,0.00,,,0.01,Wunderground v.1.15,2013-01-23 17:40:00,
2013-01-23 11:45:00,67.1,62.8,30.29,NE,51,2.0,3.0,86,0.00,,,0.01,Wunderground v.1.15,2013-01-23 17:45:00,
2013-01-23 11:50:00,67.4,63.1,30.29,ENE,77,3.0,4.0,86,0.00,,,0.01,Wunderground v.1.15,2013-01-23 17:50:00,
2013-01-23 12:00:00,68.1,63.4,30.29,East,90,3.0,5.0,85,0.00,,,0.01,Wunderground v.1.15,2013-01-23 18:00:00,
2013-01-23 12:09:00,68.2,63.2,30.28,ESE,115,4.0,4.0,84,0.00,,,0.01,Wunderground v.1.15,2013-01-23 18:09:00,
2013-01-23 12:14:00,68.6,63.6,30.28,SE,134,4.0,4.0,84,0.00,,,0.01,Wunderground v.1.15,2013-01-23 18:14:00,
2013-01-23 12:19:00,68.9,63.5,30.27,East,100,5.0,5.0,83,0.00,,,0.01,Wunderground v.1.15,2013-01-23 18:19:00,
2013-01-23 12:24:00,69.0,63.3,30.27,East,98,4.0,5.0,82,0.00,,,0.01,Wunderground v.1.15,2013-01-23 18:24:00,
2013-01-23 12:30:00,69.1,63.4,30.27,ESE,103,4.0,4.0,82,0.00,,,0.01,Wunderground v.1.15,2013-01-23 18:30:00,
2013-01-23 12:35:00,70.3,64.2,30.27,South,179,4.0,4.0,81,0.00,,,0.01,Wunderground v.1.15,2013-01-23 18:35:00,
2013-01-23 12:40:00,71.9,64.7,30.26,East,96,4.0,4.0,78,0.00,,,0.01,Wunderground v.1.15,2013-01-23 18:40:00,
2013-01-23 12:45:00,72.3,64.3,30.26,SSE,158,4.0,5.0,76,0.00,,,0.01,Wunderground v.1.15,2013-01-23 18:45:00,
2013-01-23 12:50:00,71.7,64.1,30.26,East,100,4.0,4.0,77,0.00,,,0.01,Wunderground v.1.15,2013-01-23 18:50:00,
2013-01-23 12:55:00,72.0,64.8,30.26,SE,124,3.0,4.0,78,0.00,,,0.01,Wunderground v.1.15,2013-01-23 18:55:00,
2013-01-23 13:00:00,72.3,64.3,30.25,South,176,4.0,4.0,76,0.00,,,0.01,Wunderground v.1.15,2013-01-23 19:00:00,
2013-01-23 13:09:00,72.0,64.4,30.25,SE,131,3.0,3.0,77,0.00,,,0.01,Wunderground v.1.15,2013-01-23 19:09:00,
2013-01-23 13:14:00,72.1,64.5,30.25,ESE,103,3.0,3.0,77,0.00,,,0.01,Wunderground v.1.15,2013-01-23 19:14:00,
2013-01-23 13:19:00,72.9,64.5,30.25,SSE,159,4.0,5.0,75,0.00,,,0.01,Wunderground v.1.15,2013-01-23 19:19:00,
2013-01-23 13:24:00,73.4,64.6,30.25,South,181,6.0,6.0,74,0.00,,,0.01,Wunderground v.1.15,2013-01-23 19:24:00,
2013-01-23 13:29:00,73.5,64.3,30.24,SE,146,6.0,7.0,73,0.00,,,0.01,Wunderground v.1.15,2013-01-23 19:29:00,
2013-01-23 13:35:00,74.2,64.6,30.24,SSE,162,6.0,7.0,72,0.00,,,0.01,Wunderground v.1.15,2013-01-23 19:35:00,
2013-01-23 13:40:00,74.7,65.1,30.24,ESE,108,5.0,5.0,72,0.00,,,0.01,Wunderground v.1.15,2013-01-23 19:40:00,
2013-01-23 13:45:00,74.6,64.6,30.23,South,176,5.0,5.0,71,0.00,,,0.01,Wunderground v.1.15,2013-01-23 19:45:00,
2013-01-23 13:50:00,74.8,65.2,30.23,South,180,4.0,7.0,72,0.00,,,0.01,Wunderground v.1.15,2013-01-23 19:50:00,
2013-01-23 13:55:00,75.1,65.1,30.23,SSE,160,4.0,8.0,71,0.00,,,0.01,Wunderground v.1.15,2013-01-23 19:55:00,
2013-01-23 14:00:00,75.2,64.3,30.22,ESE,118,6.0,6.0,69,0.00,,,0.01,Wunderground v.1.15,2013-01-23 20:00:00,
2013-01-23 14:09:00,75.4,64.5,30.22,SSE,162,5.0,7.0,69,0.00,,,0.01,Wunderground v.1.15,2013-01-23 20:09:00,
2013-01-23 14:14:00,75.4,64.9,30.22,SSW,205,6.0,7.0,70,0.00,,,0.01,Wunderground v.1.15,2013-01-23 20:14:00,
2013-01-23 14:19:00,75.8,64.9,30.21,SSE,156,6.0,7.0,69,0.00,,,0.01,Wunderground v.1.15,2013-01-23 20:19:00,
2013-01-23 14:24:00,75.8,64.9,30.21,SE,132,6.0,7.0,69,0.00,,,0.01,Wunderground v.1.15,2013-01-23 20:24:00,
2013-01-23 14:30:00,75.6,64.3,30.21,SE,143,7.0,7.0,68,0.00,,,0.01,Wunderground v.1.15,2013-01-23 20:30:00,
2013-01-23 14:35:00,75.0,64.5,30.21,ESE,115,8.0,8.0,70,0.00,,,0.01,Wunderground v.1.15,2013-01-23 20:35:00,
2013-01-23 14:44:00,75.5,64.2,30.20,East,96,5.0,6.0,68,0.00,,,0.01,Wunderground v.1.15,2013-01-23 20:44:00,
2013-01-23 14:49:00,75.3,64.4,30.20,South,169,6.0,6.0,69,0.00,,,0.01,Wunderground v.1.15,2013-01-23 20:49:00,
2013-01-23 14:54:00,75.1,64.2,30.20,SE,134,7.0,7.0,69,0.00,,,0.01,Wunderground v.1.15,2013-01-23 20:54:00,
2013-01-23 15:00:00,75.3,64.4,30.20,ESE,110,6.0,10.0,69,0.00,,,0.01,Wunderground v.1.15,2013-01-23 21:00:00,
2013-01-23 15:10:00,74.9,64.5,30.20,ESE,113,8.0,10.0,70,0.00,,,0.01,Wunderground v.1.15,2013-01-23 21:10:00,
2013-01-23 15:15:00,74.9,64.5,30.20,SSE,167,7.0,10.0,70,0.00,,,0.01,Wunderground v.1.15,2013-01-23 21:15:00,
2013-01-23 15:20:00,74.8,64.4,30.20,SSW,193,7.0,8.0,70,0.00,,,0.01,Wunderground v.1.15,2013-01-23 21:20:00,
2013-01-23 15:25:00,74.6,64.2,30.20,South,183,8.0,8.0,70,0.00,,,0.01,Wunderground v.1.15,2013-01-23 21:25:00,
2013-01-23 15:30:00,74.6,64.6,30.20,South,183,7.0,7.0,71,0.00,,,0.01,Wunderground v.1.15,2013-01-23 21:30:00,
2013-01-23 15:35:00,74.9,64.0,30.20,SSE,165,6.0,8.0,69,0.00,,,0.01,Wunderground v.1.15,2013-01-23 21:35:00,
2013-01-23 15:40:00,74.6,63.8,30.20,SE,131,6.0,11.0,69,0.00,,,0.01,Wunderground v.1.15,2013-01-23 21:40:00,
2013-01-23 15:50:00,74.4,64.0,30.20,ESE,120,7.0,9.0,70,0.00,,,0.01,Wunderground v.1.15,2013-01-23 21:50:00,
2013-01-23 15:55:00,74.4,64.0,30.20,SSE,155,6.0,9.0,70,0.00,,,0.01,Wunderground v.1.15,2013-01-23 21:55:00,
2013-01-23 16:00:00,74.5,64.1,30.19,ESE,117,6.0,6.0,70,0.00,,,0.01,Wunderground v.1.15,2013-01-23 22:00:00,
2013-01-23 16:10:00,73.9,63.9,30.19,ESE,113,7.0,8.0,71,0.00,,,0.01,Wunderground v.1.15,2013-01-23 22:10:00,
2013-01-23 16:20:00,73.7,63.7,30.19,South,190,7.0,11.0,71,0.00,,,0.01,Wunderground v.1.15,2013-01-23 22:20:00,
2013-01-23 16:25:00,73.6,63.6,30.19,SSE,167,7.0,11.0,71,0.00,,,0.01,Wunderground v.1.15,2013-01-23 22:25:00,
2013-01-23 16:30:00,73.5,63.9,30.20,SE,124,7.0,7.0,72,0.00,,,0.01,Wunderground v.1.15,2013-01-23 22:30:00,
2013-01-23 16:35:00,73.3,63.7,30.20,ESE,107,7.0,7.0,72,0.00,,,0.01,Wunderground v.1.15,2013-01-23 22:35:00,
2013-01-23 16:40:00,73.1,63.5,30.20,South,178,8.0,8.0,72,0.00,,,0.01,Wunderground v.1.15,2013-01-23 22:40:00,
2013-01-23 16:45:00,73.3,63.7,30.20,ESE,120,6.0,9.0,72,0.00,,,0.01,Wunderground v.1.15,2013-01-23 22:45:00,
2013-01-23 16:55:00,72.7,63.9,30.20,SSE,155,6.0,8.0,74,0.00,,,0.01,Wunderground v.1.15,2013-01-23 22:55:00,
2013-01-23 17:00:00,72.4,64.0,30.20,ESE,119,6.0,8.0,75,0.00,,,0.01,Wunderground v.1.15,2013-01-23 23:00:00,
2013-01-23 17:09:00,72.0,64.0,30.20,SE,129,6.0,6.0,76,0.00,,,0.01,Wunderground v.1.15,2013-01-23 23:09:00,
2013-01-23 17:14:00,71.7,64.1,30.21,ESE,113,5.0,10.0,77,0.00,,,0.01,Wunderground v.1.15,2013-01-23 23:14:00,
2013-01-23 17:19:00,71.5,64.3,30.20,SE,141,6.0,7.0,78,0.00,,,0.01,Wunderground v.1.15,2013-01-23 23:19:00,
2013-01-23 17:25:00,71.2,64.0,30.20,SSW,207,6.0,7.0,78,0.00,,,0.01,Wunderground v.1.15,2013-01-23 23:25:00,
2013-01-23 17:34:00,70.9,64.1,30.20,South,170,6.0,7.0,79,0.00,,,0.01,Wunderground v.1.15,2013-01-23 23:34:00,
2013-01-23 17:39:00,70.7,63.9,30.20,SE,136,5.0,8.0,79,0.00,,,0.01,Wunderground v.1.15,2013-01-23 23:39:00,
2013-01-23 17:44:00,70.4,63.9,30.20,South,174,5.0,8.0,80,0.00,,,0.01,Wunderground v.1.15,2013-01-23 23:44:00,
2013-01-23 17:49:00,70.2,63.7,30.20,ESE,109,5.0,5.0,80,0.00,,,0.01,Wunderground v.1.15,2013-01-23 23:49:00,
2013-01-23 17:55:00,69.9,63.8,30.20,South,179,5.0,5.0,81,0.00,,,0.01,Wunderground v.1.15,2013-01-23 23:55:00,
2013-01-23 18:00:00,69.7,63.6,30.20,SE,131,5.0,5.0,81,0.00,,,0.01,Wunderground v.1.15,2013-01-24 00:00:00,
2013-01-23 18:09:00,69.3,63.6,30.20,South,174,4.0,5.0,82,0.00,,,0.01,Wunderground v.1.15,2013-01-24 00:09:00,
2013-01-23 18:14:00,69.0,63.6,30.20,South,184,4.0,5.0,83,0.00,,,0.01,Wunderground v.1.15,2013-01-24 00:14:00,
2013-01-23 18:19:00,68.9,63.5,30.20,SSW,193,4.0,4.0,83,0.00,,,0.01,Wunderground v.1.15,2013-01-24 00:19:00,
2013-01-23 18:24:00,68.7,63.3,30.20,East,96,4.0,7.0,83,0.00,,,0.01,Wunderground v.1.15,2013-01-24 00:24:00,
2013-01-23 18:34:00,68.4,63.4,30.21,SSE,166,4.0,5.0,84,0.00,,,0.01,Wunderground v.1.15,2013-01-24 00:34:00,
2013-01-23 18:39:00,68.2,63.5,30.21,SSW,205,3.0,3.0,85,0.00,,,0.01,Wunderground v.1.15,2013-01-24 00:39:00,
2013-01-23 18:44:00,68.0,63.3,30.21,SSE,156,3.0,3.0,85,0.00,,,0.01,Wunderground v.1.15,2013-01-24 00:44:00,
2013-01-23 18:49:00,67.9,63.2,30.21,South,190,3.0,3.0,85,0.00,,,0.01,Wunderground v.1.15,2013-01-24 00:49:00,
2013-01-23 18:54:00,67.8,63.5,30.21,SSE,159,3.0,4.0,86,0.00,,,0.01,Wunderground v.1.15,2013-01-24 00:54:00,
2013-01-23 19:00:00,67.7,63.4,30.22,SE,136,4.0,4.0,86,0.00,,,0.01,Wunderground v.1.15,2013-01-24 01:00:00,
2013-01-23 19:10:00,67.5,63.2,30.22,South,184,2.0,3.0,86,0.00,,,0.01,Wunderground v.1.15,2013-01-24 01:10:00,
2013-01-23 19:15:00,67.4,63.1,30.22,SSE,168,3.0,5.0,86,0.00,,,0.01,Wunderground v.1.15,2013-01-24 01:15:00,
2013-01-23 19:20:00,67.4,63.1,30.22,South,176,3.0,3.0,86,0.00,,,0.01,Wunderground v.1.15,2013-01-24 01:20:00,
2013-01-23 19:25:00,67.3,63.3,30.22,South,180,3.0,5.0,87,0.00,,,0.01,Wunderground v.1.15,2013-01-24 01:25:00,
2013-01-23 19:30:00,67.2,63.2,30.22,SSE,160,4.0,4.0,87,0.00,,,0.01,Wunderground v.1.15,2013-01-24 01:30:00,
2013-01-23 19:39:00,67.2,63.2,30.22,SSE,153,4.0,4.0,87,0.00,,,0.01,Wunderground v.1.15,2013-01-24 01:39:00,
2013-01-23 19:44:00,67.1,63.1,30.22,SSE,148,4.0,4.0,87,0.00,,,0.01,Wunderground v.1.15,2013-01-24 01:44:00,
2013-01-23 19:49:00,67.1,63.4,30.22,SSE,150,4.0,4.0,88,0.00,,,0.01,Wunderground v.1.15,2013-01-24 01:49:00,
2013-01-23 19:54:00,67.1,63.1,30.22,SSE,161,4.0,4.0,87,0.00,,,0.01,Wunderground v.1.15,2013-01-24 01:54:00,
2013-01-23 20:00:00,67.0,63.0,30.22,SSW,197,4.0,4.0,87,0.00,,,0.01,Wunderground v.1.15,2013-01-24 02:00:00,
2013-01-23 20:10:00,67.0,63.0,30.22,SSE,155,4.0,4.0,87,0.00,,,0.01,Wunderground v.1.15,2013-01-24 02:10:00,
2013-01-23 20:15:00,66.9,62.9,30.22,SSE,158,4.0,4.0,87,0.00,,,0.01,Wunderground v.1.15,2013-01-24 02:15:00,
2013-01-23 20:20:00,66.9,62.9,30.22,ESE,122,3.0,4.0,87,0.00,,,0.01,Wunderground v.1.15,2013-01-24 02:20:00,
2013-01-23 20:25:00,66.9,62.9,30.22,SSE,160,4.0,5.0,87,0.00,,,0.01,Wunderground v.1.15,2013-01-24 02:25:00,
2013-01-23 20:30:00,66.9,62.9,30.22,SSE,158,4.0,4.0,87,0.00,,,0.01,Wunderground v.1.15,2013-01-24 02:30:00,
2013-01-23 20:35:00,66.9,62.9,30.22,SSW,204,4.0,4.0,87,0.00,,,0.01,Wunderground v.1.15,2013-01-24 02:35:00,
2013-01-23 20:44:00,66.9,62.9,30.21,South,172,5.0,5.0,87,0.00,,,0.01,Wunderground v.1.15,2013-01-24 02:44:00,
2013-01-23 20:49:00,66.9,62.9,30.21,SSE,158,5.0,5.0,87,0.00,,,0.01,Wunderground v.1.15,2013-01-24 02:49:00,
2013-01-23 20:54:00,66.8,62.8,30.21,SSW,200,4.0,5.0,87,0.00,,,0.01,Wunderground v.1.15,2013-01-24 02:54:00,
2013-01-23 21:00:00,66.7,62.7,30.21,South,177,4.0,7.0,87,0.00,,,0.01,Wunderground v.1.15,2013-01-24 03:00:00,
2013-01-23 21:10:00,66.7,62.7,30.21,SSE,160,6.0,6.0,87,0.00,,,0.01,Wunderground v.1.15,2013-01-24 03:10:00,
2013-01-23 21:15:00,66.6,62.6,30.21,SSW,198,5.0,6.0,87,0.00,,,0.01,Wunderground v.1.15,2013-01-24 03:15:00,
2013-01-23 21:20:00,66.6,62.6,30.21,SSE,164,5.0,6.0,87,0.00,,,0.01,Wunderground v.1.15,2013-01-24 03:20:00,
2013-01-23 21:25:00,66.6,62.6,30.22,SSE,159,5.0,6.0,87,0.00,,,0.01,Wunderground v.1.15,2013-01-24 03:25:00,
2013-01-23 21:30:00,66.5,62.5,30.21,SSW,200,5.0,5.0,87,0.00,,,0.01,Wunderground v.1.15,2013-01-24 03:30:00,
2013-01-23 21:35:00,66.5,62.5,30.21,SSE,162,5.0,7.0,87,0.00,,,0.01,Wunderground v.1.15,2013-01-24 03:35:00,
2013-01-23 21:40:00,66.4,62.4,30.21,SSW,193,5.0,9.0,87,0.00,,,0.01,Wunderground v.1.15,2013-01-24 03:40:00,
2013-01-23 21:49:00,66.4,62.4,30.21,South,176,5.0,10.0,87,0.00,,,0.01,Wunderground v.1.15,2013-01-24 03:49:00,
2013-01-23 21:54:00,66.4,62.4,30.21,SSW,201,5.0,10.0,87,0.00,,,0.01,Wunderground v.1.15,2013-01-24 03:54:00,
2013-01-23 22:00:00,66.3,62.3,30.22,SSE,162,5.0,7.0,87,0.00,,,0.01,Wunderground v.1.15,2013-01-24 04:00:00,
2013-01-23 22:10:00,66.2,62.5,30.22,South,174,4.0,8.0,88,0.00,,,0.01,Wunderground v.1.15,2013-01-24 04:10:00,
2013-01-23 22:20:00,66.1,62.4,30.22,SSE,166,4.0,4.0,88,0.00,,,0.01,Wunderground v.1.15,2013-01-24 04:20:00,
2013-01-23 22:25:00,66.1,62.4,30.22,South,186,4.0,4.0,88,0.00,,,0.01,Wunderground v.1.15,2013-01-24 04:25:00,
2013-01-23 22:30:00,66.1,62.4,30.22,SSE,165,5.0,8.0,88,0.00,,,0.01,Wunderground v.1.15,2013-01-24 04:30:00,
2013-01-23 22:35:00,66.1,62.4,30.22,South,169,5.0,8.0,88,0.00,,,0.01,Wunderground v.1.15,2013-01-24 04:35:00,
2013-01-23 22:40:00,66.0,62.3,30.22,SSE,152,5.0,5.0,88,0.00,,,0.01,Wunderground v.1.15,2013-01-24 04:40:00,
2013-01-23 22:45:00,66.0,62.3,30.22,South,174,5.0,7.0,88,0.00,,,0.01,Wunderground v.1.15,2013-01-24 04:45:00,
2013-01-23 22:55:00,65.9,62.2,30.23,SSW,198,5.0,5.0,88,0.00,,,0.01,Wunderground v.1.15,2013-01-24 04:55:00,
2013-01-23 23:05:00,65.7,62.4,30.23,SSW,209,4.0,6.0,89,0.00,,,0.01,Wunderground v.1.15,2013-01-24 05:05:00,
2013-01-23 23:10:00,65.7,62.4,30.23,SSE,166,4.0,4.0,89,0.00,,,0.01,Wunderground v.1.15,2013-01-24 05:10:00,
2013-01-23 23:15:00,65.6,62.3,30.23,SSW,198,5.0,5.0,89,0.00,,,0.01,Wunderground v.1.15,2013-01-24 05:15:00,
2013-01-23 23:20:00,65.6,62.3,30.23,SSE,166,5.0,5.0,89,0.00,,,0.01,Wunderground v.1.15,2013-01-24 05:20:00,
2013-01-23 23:25:00,65.6,62.3,30.23,South,169,5.0,5.0,89,0.00,,,0.01,Wunderground v.1.15,2013-01-24 05:25:00,
2013-01-23 23:30:00,65.5,62.2,30.23,South,176,4.0,5.0,89,0.00,,,0.01,Wunderground v.1.15,2013-01-24 05:30:00,
2013-01-23 23:35:00,65.4,62.1,30.23,SSW,208,4.0,5.0,89,0.00,,,0.01,Wunderground v.1.15,2013-01-24 05:35:00,
2013-01-23 23:40:00,65.4,62.1,30.23,SSW,201,4.0,6.0,89,0.00,,,0.01,Wunderground v.1.15,2013-01-24 05:40:00,
2013-01-23 23:45:00,65.3,62.0,30.23,South,177,5.0,6.0,89,0.00,,,0.01,Wunderground v.1.15,2013-01-24 05:45:00,
2013-01-23 23:50:00,65.1,61.8,30.22,South,169,4.0,4.0,89,0.00,,,0.01,Wunderground v.1.15,2013-01-24 05:50:00,
2013-01-23 23:55:00,65.1,62.1,30.22,SSE,162,4.0,6.0,90,0.00,,,0.01,Wunderground v.1.15,2013-01-24 05:55:00,